SCP
0 0 0 0 0 0 0 0 0 0 0 0 0 0 0 0 0 0 0 0 0 0 0 0 0 0 0 0 0 0 0 0 0 0 0 0 0 0 0 0 0 0 0
0 0 0 0 0 0 0 0 0 0 0 0 0 0 0 0 0 0 0 0 0 0 0 0 0 0 0 0 0 0 0 0 0 0 0 0 0 0 0 0 0 0 0
0 0 0 0 0 0 0 0 0 0 0 0 0 0 0 0 0 0 0 0 0 0 0 0 0 0 0 0 0 0 0 0 0 0 0 0 0 0 0 0 0 0 0
0 0 0 0 0 0 0 0 0 0 0 0 0 0 0 0 0 0 0 0 0 0 0 0 0 0 0 0 0 0 0 0 0 0 0 0 0 0 0 0 0 0 0
0 0 0 -0 -0 -0 0 0 0 0 0 0 0 0 0 0 0 0 0 0 0 0 0 0 0 0 0 0 0 0 0 0 0 0 0 0 0 0 0 0 0 0 0
0 0 0 0 -0 0 0 0 0 0 0 0 0 0 0 0 0 0 0 0 0 0 0 0 0 0 0 0 0 0 0 0 0 0 0 0 0 0 0 0 0 0 0
0 0 0 0 0 0 0 0 0 0 0 0 0 0 0 0 0 0 0 0 0 0 0 0 0 0 0 0 0 0 0 0 0 0 0 0 0 0 0 0 0 0 0
0 0 0 0 0 0 0 0 0 0 0 0 0 0 0 0 0 0 0 0 0 0 0 0 0 0 0 0 0 0 0 0 0 0 0 0 0 0 0 0 0 0 0
0 0 0 0 0 0 0 0 0 0 0 0 0 0 0 0 0 0 0 0 0 0 0 0 0 0 0 0 0 0 0 0 0 0 0 0 0 0 0 0 0 0 0
0 0 0 0 0 0 0 0 0 0 0 0 0 0 0 0 0 0 0 0 0 0 0 0 0 0 0 0 0 0 0 0 0 0 0 0 0 0 0 0 0 0 0
0 0 0 0 0 0 0 0 0 0 0 0 0 0 0 0 0 0 0 0 0 0 0 0 0 0 0 0 0 0 0 0 0 0 0 0 0 0 0 0 0 0 0
0 0 0 0 0 0 0 0 0 0 0 0 0 0 0 0 0 0 0 0 0 0 0 0 0 0 0 0 0 0 0 0 0 0 0 0 0 0 0 0 0 0 0
0 0 0 0 0 0 0 0 0 0 0 0 0 0 0 0 0 0 0 0 0 0 0 0 0 0 0 0 0 0 0 0 0 0 0 0 0 0 0 0 0 0 0
0 0 0 0 0 0 0 0 0 0 0 0 0 0 0 0 0 0 0 0 0 0 0 0 0 0 0 0 0 0 0 0 0 0 0 0 0 0 0 0 0 0 0
0 0 0 0 0 0 0 0 0 0 0 0 0 0 0 0 0 0 0 0 0 0 0 0 0 0 0 0 0 0 0 0 0 0 0 0 0 0 0 0 0 0 0
0 0 0 0 0 0 0 0 0 0 0 0 0 0 0 0 0 0 0 0 0 0 0 0 0 0 0 0 0 0 0 0 0 0 0 0 0 0 0 0 0 0 0
0 0 0 0 0 0 0 0 0 0 0 0 0 0 0 0 0 0 0 0 0 0 0 0 0 0 0 0 0 0 0 0 0 0 0 0 0 0 0 0 0 0 0
0 0 0 0 0 0 0 0 0 0 0 0 0 0 0 0 0 0 0 0 0 0 0 0 0 0 0 0 0 0 0 0 0 -0 0 0 0 0 0 0 0 0 0
0 0 0 0 0 0 0 0 0 0 0 0 0 0 0 0 0 0 0 0 0 0 0 0 0 0 0 0 0 0 0 0 0 -0 -0 0 0 0 0 0 0 0 0
0 0 0 0 0 0 0 0 0 0 0 0 0 0 0 0 0 0 0 0 0 0 0 0 0 0 0 0 0 0 0 0 0 0 0 0 0 0 0 0 0 0 0
0 0 0 0 0 0 0 0 0 0 0 0 0 0 0 0 0 0 0 0 0 0 0 0 0 0 0 0 0 0 0 0 0 0 0 0 0 0 0 0 0 0 0
0 0 0 0 0 0 0 0 0 0 0 0 0 0 0 0 0 0 0 0 0 0 0 0 0 0 0 0 0 0 0 0 0 0 0 0 0 0 0 0 0 0 0
0 0 0 0 0 0 0 0 0 0 0 0 0 0 0 0 0 0 0 0 0 0 0 0 0 0 0 0 0 0 0 0 0 0 0 0 0 0 0 0 0 0 0
0 0 0 0 0 0 0 0 0 0 0 0 0 0 0 0 0 0 0 0 0 0 0 0 0 0 0 0 0 0 0 0 0 0 0 0 0 0 0 0 0 0 0
0 0 0 0 0 0 0 0 0 0 0 0 0 0 0 0 0 0 0 0 0 0 0 0 0 0 0 0 0 0 0 0 0 0 0 0 0 0 0 0 0 0 0
0 0 0 0 0 0 0 0 0 0 0 0 0 0 0 0 0 0 0 0 0 0 0 0 0 0 0 0 0 0 0 0 0 0 0 0 0 0 0 0 0 0 0
Wind_Speed
2 2 1 2 2 2 2 2 2 2 2 2 2 1 1 1 0 0 1 2 2 2 3 3 3 2 2 1 1 1 1 2 5 7 8 9 10 11 12 12 12 12 14
2 2 2 2 2 2 2 2 2 2 2 2 2 2 1 1 1 0 1 1 2 2 3 3 2 2 2 2 1 1 2 4 6 8 9 9 10 11 11 11 11 12 14
2 2 2 2 2 2 3 2 3 3 3 3 3 3 2 1 1 1 0 1 1 2 3 3 3 2 2 2 2 3 4 5 6 8 9 9 9 10 10 10 11 12 13
3 2 2 2 2 2 2 2 2 3 3 2 2 2 2 2 1 1 0 0 1 1 2 2 3 2 3 3 4 4 5 6 6 8 8 9 9 9 10 10 10 11 12
3 2 2 2 2 2 3 2 2 2 2 3 2 2 2 2 2 1 1 1 1 1 1 1 1 2 2 2 4 5 6 7 7 7 8 9 9 9 9 9 10 11 11
3 3 2 3 3 2 3 3 2 2 1 2 2 3 3 3 2 2 1 1 1 1 0 0 0 1 1 2 3 5 6 7 7 7 7 8 8 9 10 10 10 10 11
3 3 2 2 3 2 2 2 2 3 2 2 3 3 4 3 3 2 2 1 2 1 1 0 0 0 0 1 2 4 6 6 8 8 7 7 8 10 10 10 10 11 10
2 2 2 2 2 2 3 3 2 2 2 2 2 2 3 5 4 3 2 2 2 2 1 1 0 1 1 1 1 3 4 5 7 7 7 7 8 10 10 10 11 11 11
1 2 2 2 2 1 1 1 1 2 1 2 1 2 2 1 3 3 3 3 2 1 1 1 0 1 1 1 1 2 3 4 6 7 7 7 9 9 10 10 10 10 11
0 1 1 2 1 1 1 1 1 1 1 1 2 1 1 2 1 2 3 3 3 2 2 1 1 0 1 1 2 3 4 5 6 7 7 8 9 9 9 9 10 10 10
1 0 1 1 1 1 1 1 2 1 1 1 0 1 1 1 1 1 1 3 3 2 2 2 1 0 1 1 1 3 5 5 6 7 8 9 10 10 10 10 10 10 10
1 1 0 0 0 0 1 1 1 1 1 1 0 0 1 1 1 1 1 1 2 3 2 2 1 1 1 1 2 3 5 6 6 6 7 8 9 10 10 10 11 11 10
1 2 1 0 0 1 0 0 1 1 1 0 0 0 1 1 1 2 1 1 1 2 2 2 2 1 1 1 1 3 4 5 6 6 6 7 7 8 9 10 11 11 11
2 2 1 1 1 1 0 0 0 1 1 1 1 0 0 1 1 2 2 2 0 2 2 3 2 1 1 1 2 3 3 6 6 6 7 6 7 7 8 8 9 10 11
2 2 1 1 1 1 0 0 0 1 1 1 1 1 0 1 0 1 2 2 3 1 2 3 2 2 1 1 2 2 2 5 7 7 7 7 7 7 7 7 7 8 8
1 1 1 1 1 1 1 0 1 1 1 1 1 1 1 1 1 0 1 1 2 3 2 2 2 2 2 2 2 2 3 5 7 7 7 7 7 7 7 7 7 7 7
1 1 1 1 1 1 1 0 1 1 1 2 2 1 2 1 1 1 0 0 1 2 2 2 2 2 1 2 1 1 2 2 3 7 7 7 8 8 7 7 7 7 7
1 1 1 1 1 1 0 0 1 1 1 2 2 2 3 2 1 1 1 1 1 2 3 2 2 1 2 2 2 1 2 2 3 6 7 8 8 8 8 8 7 7 8
1 1 1 0 1 1 1 1 0 1 1 2 2 2 2 1 2 2 2 2 2 2 2 2 2 1 2 1 1 1 1 1 3 4 7 8 8 9 9 9 9 9 9
1 1 1 0 0 1 0 1 1 1 1 2 2 2 2 2 2 2 2 2 2 2 1 2 2 2 2 2 0 1 1 1 2 2 3 4 6 8 9 9 10 10 10
2 1 1 1 1 1 1 1 1 1 1 2 2 2 2 2 3 2 2 2 2 2 2 2 2 1 2 1 2 2 2 1 2 2 1 2 2 3 4 7 9 10 10
2 2 2 1 2 2 2 1 1 1 1 2 3 4 3 3 4 4 4 3 2 2 3 3 3 3 4 3 2 2 2 1 2 2 2 2 2 3 3 3 6 9 10
2 2 2 2 2 3 3 3 2 1 1 2 3 3 4 3 4 3 5 5 4 5 5 3 4 5 5 4 3 3 3 4 4 3 2 2 2 3 3 4 7 9 9
2 2 2 2 2 4 5 3 3 1 1 2 3 3 3 4 4 4 3 4 4 4 6 5 5 6 6 5 5 5 5 4 3 2 3 3 2 3 2 3 6 8 9
2 2 2 2 2 4 6 4 2 1 2 3 4 3 3 4 7 6 3 4 5 5 6 7 8 8 9 9 6 3 2 2 3 3 3 3 2 2 2 2 4 7 8
2 2 3 2 2 4 6 5 3 0 2 3 4 4 6 6 8 6 3 4 5 6 5 5 5 6 6 7 8 6 5 4 3 3 3 4 3 2 2 2 2 3 4
Wind_Direction
60 42 19 13 3 1 358 350 355 356 351 352 1 36 22 19 96 219 267 240 227 233 232 228 211 215 220 216 210 214 195 155 145 137 134 131 133 137 142 148 152 156 157
73 51 24 11 3 3 5 0 8 12 0 6 12 18 12 8 32 336 283 291 268 262 254 234 213 208 210 200 173 174 149 143 141 139 139 137 134 139 142 148 151 154 156
68 62 41 12 356 0 7 11 13 21 17 13 4 358 5 8 9 335 317 294 288 279 259 243 213 197 185 175 147 125 127 131 134 140 142 139 138 138 142 146 145 148 151
72 68 50 8 355 12 17 18 16 17 13 8 349 341 356 357 354 333 324 321 295 295 278 254 216 191 178 167 150 135 129 134 135 138 140 139 139 139 140 142 141 142 147
66 72 52 10 14 29 20 15 30 27 11 355 339 355 354 354 344 353 359 6 2 315 282 265 219 177 161 163 150 140 138 141 142 140 140 140 140 141 140 140 142 145 147
61 62 47 23 29 36 20 16 17 18 14 350 7 13 351 348 358 8 348 2 2 4 359 224 207 224 165 153 151 151 148 150 148 144 145 146 147 148 148 147 148 148 150
69 65 48 30 30 37 19 13 23 21 8 10 36 6 351 355 8 9 0 8 16 13 43 109 150 169 270 169 163 160 161 158 156 151 151 153 155 154 152 151 153 153 156
67 70 62 40 29 31 22 21 38 29 360 21 71 55 4 351 349 1 1 13 8 12 19 29 197 191 200 156 179 171 170 170 165 158 159 154 154 153 153 154 156 158 160
67 68 67 63 38 51 24 7 41 63 13 352 56 115 106 309 321 334 349 360 360 6 348 331 311 194 187 168 185 199 183 178 174 171 168 159 154 156 157 158 160 162 160
47 74 74 72 58 47 24 347 56 90 89 6 349 25 152 168 135 332 335 342 350 358 341 338 321 221 165 167 191 191 191 188 186 185 182 176 169 168 168 167 166 166 162
330 345 70 75 59 28 6 6 19 47 95 120 17 347 30 55 110 135 315 330 343 333 329 317 308 254 188 176 187 192 193 191 191 194 193 190 186 184 182 179 174 170 170
323 317 28 67 44 10 359 1 14 41 58 102 120 130 139 141 199 150 196 293 317 312 323 321 315 274 242 213 214 194 190 194 197 195 193 196 196 194 193 190 185 181 177
284 274 273 260 262 267 285 28 35 18 17 25 262 216 198 207 189 163 153 224 309 310 328 320 294 282 257 249 249 219 202 196 198 199 200 199 200 201 199 196 194 190 186
232 238 231 239 248 273 278 98 13 319 344 339 339 326 272 264 188 170 167 151 40 330 328 302 308 287 278 261 248 221 216 205 204 205 204 203 201 199 200 199 197 196 195
229 221 226 238 247 261 253 158 319 303 333 329 318 335 328 292 259 195 172 160 155 187 294 292 298 295 282 255 240 217 218 216 211 210 207 205 201 199 195 194 194 194 193
235 211 243 248 248 260 263 236 293 297 332 314 297 329 323 295 297 271 194 173 164 168 224 268 269 285 287 266 225 211 226 222 218 214 209 205 201 198 196 193 190 189 189
234 219 231 234 240 261 276 256 278 291 314 314 319 311 295 288 294 294 268 191 179 167 206 272 278 297 290 279 291 254 233 221 226 218 211 209 204 199 196 195 193 187 189
274 244 242 262 277 296 302 237 284 291 282 291 301 313 299 294 286 279 255 242 226 199 191 243 281 291 269 256 250 249 243 220 222 221 215 214 210 206 202 200 200 196 195
356 10 52 38 302 308 316 286 288 311 295 277 275 270 283 290 282 275 255 246 243 230 200 211 256 267 276 275 275 273 255 259 234 223 219 220 216 212 209 208 206 203 202
19 11 24 20 311 302 314 312 323 323 323 308 290 269 268 246 247 256 257 253 246 241 229 223 248 263 269 279 230 248 273 261 250 234 223 217 218 218 216 215 211 207 206
13 9 19 2 343 334 329 323 311 320 321 321 316 297 280 278 266 251 251 245 232 235 236 231 244 258 260 257 239 231 236 260 262 228 213 220 212 217 219 220 217 213 209
356 6 359 341 337 345 339 334 337 302 304 305 304 302 296 291 295 286 280 261 220 215 226 225 235 235 243 235 230 222 216 217 257 230 186 230 196 217 220 214 213 209 207
359 351 337 334 319 313 334 347 346 339 302 290 289 296 305 310 304 292 291 288 268 254 226 215 228 238 237 226 214 224 219 214 229 219 174 230 212 221 222 215 204 201 200
348 327 321 320 310 314 325 327 332 352 327 309 293 278 279 290 296 290 280 285 279 272 253 234 231 245 245 234 216 220 221 227 251 242 179 215 220 223 223 214 205 200 199
330 313 308 313 306 303 319 325 340 331 309 305 305 299 289 282 298 301 281 276 282 283 273 259 254 255 256 246 226 208 208 204 243 243 199 195 210 215 228 231 217 204 202
301 312 316 309 294 289 306 316 321 255 290 298 303 299 294 295 300 300 276 265 273 278 285 288 278 272 265 256 235 217 210 209 218 238 209 186 191 176 221 242 215 201 201